Tracking 18840 objects as of 19-November-2017
HD Live streaming from Space Station
objects crossing your sky now

FENGYUN 1C DEB

Track FENGYUN 1C DEB now!
10-day predictions


NORAD ID: 30868
Int'l Code: 1999-025AXE
Perigee: 767.2 km
Apogee: 968.5 km
Inclination: 98.3 °
Period: 102.2 minutes
Semi major axis: 7238 km
RCS: 0.0097 m2 (small)
Launch date: May 10, 1999
Source: People's Republic of China (PRC)
Launch site: Taiyaun Space Center, China (TSC)

Note: This is SATELLITE DEBRIS
aabbcc
Your satellite tracking list
Your tracking list is empty




NASA's NSSDC Master Catalog

Two Line Element Set (TLE):
1 30868U 99025AXE 17322.42803448  .00000077  00000-0  60468-4 0  9990
2 30868  98.3001  38.4896 0139082  34.0934  25.1739 14.09612112552323
Source of the keplerian elements: AFSPC